Location: Stara Lesna
(49.1528°N, 20.2911°E)
Time: 13:24:45
(UTC+02:00)

Unknown - Pass Details

Date: 21 September 2019
Orbit: 549 x 551 km, 53.0° (Epoch: 22 October)

Event Time Altitude Azimuth Distance (km) Brightness Sun altitude
Exits shadow 05:46:33 - 278° (W) 2,016 5.9 -6.8°
Reaches altitude 10° 05:47:03 10° 279° (W) 1,826 5.7 -6.7°
Maximum altitude 05:51:05 49° 355° (N) 715 4.2 -6.1°
Drops below altitude 10° 05:55:08 10° 72° (ENE) 1,829 8.0 -5.4°
Sets 05:57:26 0° 78° (ENE) 2,724 9.9 -5.0°
